807  
ASUS41 KBTV 241330  
RWRBTV  
VERMONT REGIONAL WEATHER ROUNDUP  
NATIONAL WEATHER SERVICE BURLINGTON VT  
900 AM EDT MON SEP 24 2018  
 
NOTE: "FAIR" INDICATES FEW OR NO CLOUDS BELOW 12,000 FEET WITH NO  
SIGNIFICANT WEATHER AND/OR S TO VISIBILITY
.  
 
* THESE REPORTS ARE NOT UNDER NWS QUALITY CONTROL AND/OR DO NOT  
REPORT WEATHER SUCH AS PRECIPITATION AND FOG.
 
 
VTZ001>019-241400-  
_____VERMONT_____  
 
 
CITY SKY/WX TMP DP RH WIND PRES REMARKS
 
BURLINGTON FAIR 49 38 65 CALM 30.57R  
MONTPELIER FAIR 43 38 82 N5 30.60R  
MORRISVILLE FAIR 46 36 68 NE9 30.59R  
ST. JOHNSBURY* N/A 45 38 76 MISG 30.57R  
LYNDONVILLE* FAIR 45 37 74 CALM 30.59R  
MIDDLEBURY* FAIR 48 42 77 N3 30.56R  
RUTLAND* FAIR 46 43 87 NW5 30.55R  
SPRINGFIELD CLOUDY 46 45 96 CALM 30.58R  
HIGHGATE* FAIR 48 32 53 NE5 30.59R  
NEWPORT* FAIR 44 36 75 N3 30.60R  
BENNINGTON FAIR 54 45 71 E9 30.51R  
ISLAND POND* N/A 46 N/A N/A SE2 N/A  
GALLUP MILLS* N/A 43 N/A N/A MISG N/A  
MT. MANSFIELD* N/A 45 N/A N/A CALM N/A  
 
_____LAKE CHAMPLAIN_____  
 
 
CITY SKY/WX TMP DP RH WIND PRES REMARKS
 
BURTON ISLAND* N/A 52 37 58 E1 N/A  
COLCHESTER RF* N/A 48 39 71 N10 N/A  
DIAMOND ISL* N/A 48 39 71 NW12 N/A  
 

 
 
NYZ007-026>031-035-052-083-087-241400-  
_____NORTHERN NEW YORK_____  
 
 
CITY SKY/WX TMP DP RH WIND PRES REMARKS
 
PLATTSBURGH FAIR 48 36 63 N10 30.58R  
SARANAC LAKE FAIR 42 33 70 NE7 30.51R  
MASSENA FAIR 48 34 58 E16 30.57R  
OGDENSBURG* FAIR 48 35 58 E9G18 30.54R  
POTSDAM* FAIR 46 32 57 VRB7G15 30.54R  
STARK FALLS* N/A 46 N/A N/A E6 N/A  
WATERTOWN FAIR 47 42 83 NE12 30.47S  
FT DRUM FAIR 47 47 100 E7 30.48R  
ALBANY FAIR 51 41 68 N8 30.54R  
GLENS FALLS FAIR 50 43 77 E6 30.54R  
 

 
NHZ002-005-011-241400-  
_____NEW HAMPSHIRE_____  
 
 
CITY SKY/WX TMP DP RH WIND PRES REMARKS
 
LEBANON CLOUDY 48 42 80 N5 30.58R  
KEENE N/A N/A N/A N/A MISG N/A  
MT WASHINGTON FOG 34 34 100 NW20 N/A VSB 1/16WCI 22  
PLYMOUTH CLOUDY 45 44 98 CALM 30.60R  
WHITEFIELD CLOUDY 47 35 63 E9 30.57R  
 

 
 
_____REGIONAL QUEBEC LOCATIONS_____  
 
 
CITY SKY/WX TMP DP RH WIND PRES REMARKS
 
MONTREAL MOSUNNY 45 32 61 NE13G20 30.62R  
QUEBEC CITY MOSUNNY 39 27 60 NE5 30.68R  
SHERBROOKE SUNNY 41 32 70 NE7 30.61R  
 
_____REGIONAL ONTARIO LOCATIONS_____  
 
 
CITY SKY/WX TMP DP RH WIND PRES REMARKS
 
OTTAWA MOSUNNY 45 30 57 E17G25 30.58R  
 
______KEY______  
VSB - VISIBILITY IN MILES  
WCI - WIND CHILL INDEX  
HX - HEAT INDEX  

 
NNNN  
 
 
CLICK HERE TO GO TO PREVIOUS BULLETINS.

The Nexlab VT Page
The Nexlab NY Page Main Text Page